Sanford, FL

6:31 AM EDT on May 26, 2017 (GMT -0400)
Orlando Sanford

Weather History for KSFB - July, 2013

Change the Weather History Date:

Saturday, July 27, 2013

  Actual Average Record
Temperature  
Mean Temperature 78 °F -  
Max Temperature 88 °F 92 °F 99 °F (2010)
Min Temperature 71 °F 71 °F 67 °F (1971)
Cooling Degree Days 14    
Growing Degree Days 28 (Base 50)    
Moisture  
Dew Point 74 °F    
Average Humidity 94    
Maximum Humidity 100    
Minimum Humidity 65    
Precipitation  
Precipitation 2.23 in - - ()
Sea Level Pressure  
Sea Level Pressure 29.96 in    
Wind  
Wind Speed 4 mph (ESE)    
Max Wind Speed 41 mph    
Max Gust Speed 76 mph    
Visibility 5 miles    
Events Fog , Rain , Thunderstorm    
Averages and records for this station are not official NWS values.
T = Trace of Precipitation, MM = Missing Value Source: NWS Daily Summary

Daily Weather History Graph

Daily Weather History Graph

Search for Another Location

Airport or City:

Trip Planner

Search our weather history database for the weather conditions in past years. The results will help you decide how hot, cold, wet, or windy it might be!

Date:

Astronomy

Jul. 27, 2013 Rise Set
Actual Time 6:43 AM EDT 8:19 PM EDT
Civil Twilight 6:17 AM EDT 8:44 PM EDT
Nautical Twilight 5:46 AM EDT 9:15 PM EDT
Astronomical Twilight 5:14 AM EDT 9:48 PM EDT
Moon 11:40 PM EDT (7/27) 11:49 AM EDT (7/27)
Length of Visible Light 14h 27m
Length of Day
13h 35m
Waning Gibbous, 71% of the Moon is Illuminated
Jul 27
Waning Gibbous
Jul 29
Last Quarter
Aug 6
New
Aug 14
First Quarter
Aug 20
Full

Hourly Weather History & Observations

Time (EDT) Temp. Heat Index Dew Point Humidity Pressure Visibility Wind Dir Wind Speed Gust Speed Precip Events Conditions
12:08 AM 78.8 °F - 77.0 °F 94% 30.01 in 9.0 mi Calm Calm - N/A   Mostly Cloudy
12:53 AM 79.0 °F - 77.0 °F 94% 30.01 in 10.0 mi Calm Calm - N/A   Mostly Cloudy
1:42 AM 78.8 °F - 77.0 °F 94% 30.00 in 9.0 mi Calm Calm - N/A   Scattered Clouds
1:53 AM 77.0 °F - 75.9 °F 96% 29.99 in 8.0 mi Calm Calm - N/A   Partly Cloudy
2:53 AM 77.0 °F - 75.9 °F 96% 29.96 in 7.0 mi Calm Calm - N/A   Clear
3:53 AM 77.0 °F - 75.9 °F 96% 29.96 in 7.0 mi Calm Calm - N/A   Clear
4:28 AM 75.2 °F - 75.2 °F 100% 29.96 in 4.0 mi Calm Calm - N/A   Partly Cloudy
4:53 AM 75.9 °F - 75.0 °F 97% 29.96 in 4.0 mi NNE 3.5 mph - N/A   Mostly Cloudy
5:03 AM 75.2 °F - 75.2 °F 100% 29.96 in 1.8 mi NNE 3.5 mph - N/A   Mostly Cloudy
5:14 AM 75.2 °F - 75.2 °F 100% 29.96 in 0.5 mi NNE 4.6 mph - N/A Fog Fog
5:42 AM 73.4 °F - 73.4 °F 100% 29.97 in 2.0 mi North 3.5 mph - N/A   Mostly Cloudy
5:45 AM 73.4 °F - 73.4 °F 100% 29.97 in 3.0 mi Calm Calm - N/A   Scattered Clouds
5:53 AM 73.9 °F - 73.9 °F 100% 29.97 in 4.0 mi Calm Calm - N/A   Partly Cloudy
6:13 AM 73.4 °F - 73.4 °F 100% 29.97 in 1.8 mi ENE 3.5 mph - N/A   Partly Cloudy
6:21 AM 71.6 °F - 71.6 °F 100% 29.97 in 1.0 mi Calm Calm - N/A   Mist
6:29 AM 71.6 °F - 71.6 °F 100% 29.97 in 0.2 mi Calm Calm - N/A Fog Fog
6:51 AM 71.6 °F - - N/A% 29.98 in 0.2 mi Calm Calm - N/A Fog Fog
6:53 AM 71.1 °F - - N/A% 29.98 in 0.2 mi Calm Calm - N/A Fog Fog
7:04 AM 71.6 °F - 71.6 °F 100% 29.98 in 0.2 mi Calm Calm - N/A Fog Fog
7:32 AM - - - N/A% 29.99 in 0.8 mi Calm Calm - N/A   Mist
7:35 AM - - - N/A% 29.99 in 2.0 mi Calm Calm - N/A   Overcast
7:43 AM - - - N/A% 29.99 in 4.0 mi Calm Calm - N/A   Haze
7:53 AM - - - N/A% 29.99 in 5.0 mi Calm Calm - N/A   Haze
8:53 AM 75.0 °F - 75.0 °F 100% 29.99 in 10.0 mi Calm Calm - N/A   Clear
9:53 AM 79.0 °F - 73.9 °F 84% 30.00 in 10.0 mi WNW 5.8 mph - N/A   Clear
10:53 AM 82.0 °F 87.9 °F 73.9 °F 76% 29.99 in 10.0 mi Calm Calm - N/A   Scattered Clouds
11:53 AM 82.0 °F 87.9 °F 73.9 °F 76% 29.99 in 10.0 mi Variable 5.8 mph - N/A   Mostly Cloudy
12:53 PM 84.0 °F 91.2 °F 73.9 °F 72% 29.97 in 10.0 mi Variable 4.6 mph - N/A   Mostly Cloudy
1:53 PM 84.0 °F 91.2 °F 73.9 °F 72% 29.95 in 10.0 mi SSE 4.6 mph - N/A   Overcast
2:53 PM 84.9 °F 91.4 °F 73.0 °F 67% 29.93 in 10.0 mi NE 4.6 mph - N/A   Overcast
3:53 PM 86.0 °F 93.0 °F 73.0 °F 65% 29.92 in 10.0 mi NE 9.2 mph - N/A   Mostly Cloudy
4:19 PM 80.6 °F 86.2 °F 75.2 °F 84% 29.92 in 1.8 mi Calm Calm - 0.10 in Rain Heavy Rain
4:25 PM 78.8 °F - 75.2 °F 89% 29.92 in 0.8 mi SSE 5.8 mph - 0.18 in Rain , Thunderstorm Heavy Thunderstorms and Rain
4:30 PM 75.2 °F - 73.4 °F 94% 29.94 in 0.2 mi South 41.4 mph 76.0 mph 0.41 in Fog , Rain , Thunderstorm Thunderstorms and Rain
4:39 PM 77.0 °F - 73.4 °F 89% 29.91 in 0.5 mi SSE 23.0 mph 44.9 mph 0.63 in Fog , Rain , Thunderstorm Light Thunderstorms and Rain
4:43 PM 73.4 °F - 73.4 °F 100% 29.91 in 2.5 mi South 13.8 mph 31.1 mph 0.63 in Rain , Thunderstorm Light Thunderstorms and Rain
4:53 PM 73.0 °F - 73.0 °F 100% 29.91 in 1.0 mi SSE 25.3 mph 33.4 mph 0.81 in Rain , Thunderstorm Heavy Thunderstorms and Rain
4:59 PM 71.6 °F - 71.6 °F 100% 29.93 in 0.2 mi SE 20.7 mph 33.4 mph 0.32 in Fog , Rain , Thunderstorm Heavy Thunderstorms and Rain
5:05 PM 71.6 °F - 71.6 °F 100% 29.93 in 0.2 mi East 18.4 mph 26.5 mph 0.71 in Fog , Rain , Thunderstorm Heavy Thunderstorms and Rain
5:15 PM 71.6 °F - 71.6 °F 100% 29.93 in 1.0 mi NNE 29.9 mph 42.6 mph 1.01 in Rain , Thunderstorm Heavy Thunderstorms and Rain
5:22 PM 75.2 °F - 71.6 °F 89% 29.94 in 3.0 mi ENE 12.7 mph 42.6 mph 1.01 in Rain Light Rain
5:31 PM 73.4 °F - 71.6 °F 94% 29.94 in 10.0 mi NE 18.4 mph 21.9 mph 1.01 in Rain Light Rain
5:39 PM 71.6 °F - 71.6 °F 100% 29.94 in 7.0 mi NE 15.0 mph - 1.04 in Rain , Thunderstorm Light Thunderstorms and Rain
5:53 PM 72.0 °F - 72.0 °F 100% 29.95 in 7.0 mi Variable 4.6 mph - 1.20 in Rain , Thunderstorm Light Thunderstorms and Rain
6:17 PM 73.4 °F - 73.4 °F 100% 29.95 in 10.0 mi ESE 10.4 mph - 0.03 in Rain Light Rain
6:41 PM 71.6 °F - 71.6 °F 100% 29.96 in 1.8 mi SE 11.5 mph - 0.14 in Rain Heavy Rain
6:53 PM 72.0 °F - 72.0 °F 100% 29.94 in 5.0 mi SE 13.8 mph - 0.22 in Rain Light Rain
7:53 PM 75.9 °F - 73.9 °F 94% 29.95 in 10.0 mi Calm Calm - 0.00 in   Clear
8:53 PM 73.0 °F - 73.0 °F 100% 29.96 in 10.0 mi ESE 3.5 mph - N/A   Clear
9:53 PM 73.0 °F - 73.0 °F 100% 29.96 in 10.0 mi South 4.6 mph - N/A   Clear
10:53 PM 73.0 °F - 73.0 °F 100% 29.98 in 10.0 mi SSW 4.6 mph - N/A   Clear
11:53 PM 73.0 °F - 73.0 °F 100% 29.98 in 10.0 mi SSW 8.1 mph - N/A   Clear